Location: Bridalveil Moraine
(37.7171°N, 119.6568°W)
Time: 06:08:19
(UTC+00:00)

ARIANE 6 FM1 Upper Stage - Visible Passes

Search period start: 20 January 2026 00:00
Search period end: 30 January 2026 00:00
Orbit: 522 x 610 km, 62.0° (Epoch: 19 January)

Date Brightness Start Highest point End Pass type
(mag) Time Alt. Az. Time Alt. Az. Time Alt. Az.
20 Jan 3.2 03:09:02 10° SSW 03:12:09 49° SSW 03:12:09 49° SSW visible
21 Jan 2.8 03:09:13 10° SW 03:13:10 69° WNW 03:13:10 69° WNW visible
22 Jan 4.5 01:32:25 10° SSE 01:34:50 15° ESE 01:37:13 10° ENE visible
22 Jan 3.4 03:09:34 10° SW 03:13:30 45° NW 03:14:06 41° NNW visible
23 Jan 3.9 01:31:35 10° S 01:34:52 23° ESE 01:38:07 10° ENE visible
23 Jan 4.2 03:10:07 10° WSW 03:13:44 30° NW 03:14:58 25° NNW visible
24 Jan 4.7 03:10:52 10° W 03:14:01 21° NW 03:15:43 17° NNW visible
25 Jan 5.1 03:11:54 10° W 03:14:20 15° NW 03:16:23 11° N visible
26 Jan 5.4 03:13:29 10° WNW 03:14:42 11° NW 03:15:54 10° NNW visible
